Weather History for Iwojima, Japan

Change the Weather History Date:

Thursday, December 26, 2013

  Actual Average Record
Temperature  
Mean Temperature 73 °F -  
Max Temperature 78 °F 69 °F 78 °F (2013)
Min Temperature 68 °F 64 °F 60 °F (1999)
Cooling Degree Days 8    
Growing Degree Days 23 (Base 50)    
Moisture  
Dew Point 66 °F    
Average Humidity 80    
Maximum Humidity 88    
Minimum Humidity 69    
Precipitation  
Precipitation 0.00 in - - ()
Sea Level Pressure  
Sea Level Pressure 29.99 in    
Wind  
Wind Speed 13 mph ()    
Max Wind Speed 20 mph    
Max Gust Speed -    
Visibility 6.2 miles    
Events Rain    
Averages and records for this station are not official NWS values.
T = Trace of Precipitation, MM = Missing Value Source: Averaged Metar Reports

Daily Weather History Graph

Daily Weather History Graph

Search for Another Location

Airport:

Trip Planner

Search our weather history database for the weather conditions in past years. The results will help you decide how hot, cold, wet, or windy it might be!

Date:

Astronomy

Dec. 26, 2013 Rise Set
Actual Time 7:17 AM ChST 5:53 PM ChST
Civil Twilight 6:52 AM ChST 6:18 PM ChST
Nautical Twilight 6:23 AM ChST 6:46 PM ChST
Astronomical Twilight 5:55 AM ChST 7:14 PM ChST
Moon 12:37 AM ChST (12/26) 12:39 PM ChST (12/26)
Length of Visible Light 11h 26m
Length of Day
10h 36m
Last Quarter, 45% of the Moon is Illuminated
Dec 26
Last Quarter
Jan 1
New
Jan 8
First Quarter
Jan 16
Full
Jan 24
Last Quarter

Hourly Weather History & Observations

Time (ChST) Temp. Dew Point Humidity Pressure Visibility Wind Dir Wind Speed Gust Speed Precip Events Conditions
1:00 AM 68.0 °F 59.0 °F 73% 30.12 in 6.2 mi East 17.3 mph - N/A   Mostly Cloudy
4:00 AM 69.8 °F 60.8 °F 73% 30.09 in 6.2 mi ESE 16.1 mph - N/A   Mostly Cloudy
6:00 AM 69.8 °F 62.6 °F 78% 30.09 in 6.2 mi ESE 17.3 mph - N/A   Mostly Cloudy
7:00 AM 69.8 °F 60.8 °F 73% 30.09 in 6.2 mi SE 19.6 mph - N/A   Mostly Cloudy
8:00 AM 69.8 °F 64.4 °F 83% 30.09 in 6.2 mi SE 13.8 mph - N/A   Mostly Cloudy
9:00 AM 69.8 °F 64.4 °F 83% 30.09 in 6.2 mi SSE 15.0 mph - N/A   Mostly Cloudy
10:00 AM 71.6 °F 64.4 °F 78% 30.09 in 6.2 mi SSE 15.0 mph - N/A Rain Light Rain Showers
11:00 AM 73.4 °F 64.4 °F 73% 30.09 in 6.2 mi SSE 13.8 mph - N/A   Mostly Cloudy
12:00 PM 73.4 °F 66.2 °F 78% 30.06 in 6.2 mi South 13.8 mph - N/A   Mostly Cloudy
1:00 PM 73.4 °F 68.0 °F 83% 30.01 in 6.2 mi SSE 12.7 mph - N/A   Mostly Cloudy
1:32 PM 73.4 °F 66.2 °F 78% 29.98 in 6.2 mi South 13.8 mph - N/A   Mostly Cloudy
2:00 PM 75.2 °F 66.2 °F 73% 29.98 in 6.2 mi South 15.0 mph - N/A   Mostly Cloudy
2:45 PM 78.8 °F 69.8 °F 74% 29.95 in 6.2 mi South 10.4 mph - N/A   Mostly Cloudy
3:00 PM 75.2 °F 66.2 °F 73% 29.95 in 6.2 mi South 12.7 mph - N/A   Mostly Cloudy
4:00 PM 73.4 °F 64.4 °F 73% 29.92 in 6.2 mi South 13.8 mph - N/A   Mostly Cloudy
5:00 PM 77.0 °F 66.2 °F 69% 29.92 in 6.2 mi South 13.8 mph - N/A   Mostly Cloudy
5:24 PM 73.4 °F 66.2 °F 78% 29.92 in 6.2 mi South 10.4 mph - N/A Rain Light Rain Showers
6:00 PM 71.6 °F 68.0 °F 88% 29.92 in 6.2 mi South 9.2 mph - N/A   Mostly Cloudy
6:31 PM 71.6 °F 68.0 °F 88% 29.89 in 6.2 mi South 9.2 mph - N/A   Mostly Cloudy
7:00 PM 71.6 °F 66.2 °F 83% 29.89 in 6.2 mi South 12.7 mph - N/A   Mostly Cloudy
8:00 PM 71.6 °F 66.2 °F 83% 29.92 in 6.2 mi South 10.4 mph - N/A   Mostly Cloudy
8:49 PM 71.6 °F 68.0 °F 88% 29.95 in 6.2 mi SSW 9.2 mph - N/A Rain Light Rain Showers
9:00 PM 71.6 °F 68.0 °F 88% 29.95 in 6.2 mi SSW 9.2 mph - N/A Rain Light Rain Showers
10:00 PM 71.6 °F 68.0 °F 88% 29.89 in 6.2 mi South 9.2 mph - N/A   Mostly Cloudy
11:00 PM 71.6 °F 68.0 °F 88% 29.89 in 6.2 mi South 11.5 mph - N/A   Mostly Cloudy
11:05 PM 71.6 °F 68.0 °F 88% 29.89 in 6.2 mi South 11.5 mph - N/A   Mostly Cloudy